Year,Month,Day,Hour,Minute,Value (Times are PST for temperature in C)
2015,10,04,00,00,9.30
2015,10,04,00,01,9.30
2015,10,04,00,02,9.30
2015,10,04,00,03,9.30
2015,10,04,00,04,9.30
2015,10,04,00,05,9.30
2015,10,04,00,06,9.30
2015,10,04,00,07,9.30
2015,10,04,00,08,9.30
2015,10,04,00,09,9.30
2015,10,04,00,10,9.20
2015,10,04,00,11,9.20
2015,10,04,00,12,9.20
2015,10,04,00,13,9.20
2015,10,04,00,14,9.20
2015,10,04,00,15,9.20
2015,10,04,00,16,9.20
2015,10,04,00,17,9.20
2015,10,04,00,18,9.10
2015,10,04,00,19,9.10
2015,10,04,00,20,9.10
2015,10,04,00,21,9.10
2015,10,04,00,22,9.10
2015,10,04,00,23,9.10
2015,10,04,00,24,9.00
2015,10,04,00,25,9.00
2015,10,04,00,26,9.00
2015,10,04,00,27,9.00
2015,10,04,00,28,9.00
2015,10,04,00,29,8.90
2015,10,04,00,30,8.90
2015,10,04,00,31,8.90
2015,10,04,00,32,8.90
2015,10,04,00,33,8.90
2015,10,04,00,34,8.90
2015,10,04,00,35,8.90
2015,10,04,00,36,8.90
2015,10,04,00,37,8.90
2015,10,04,00,38,8.90
2015,10,04,00,39,8.90
2015,10,04,00,40,8.90
2015,10,04,00,41,8.90
2015,10,04,00,42,8.90
2015,10,04,00,43,8.90
2015,10,04,00,44,8.90
2015,10,04,00,45,8.80
2015,10,04,00,46,8.80
2015,10,04,00,47,8.80
2015,10,04,00,48,8.80
2015,10,04,00,49,8.80
2015,10,04,00,50,8.80
2015,10,04,00,51,8.80
2015,10,04,00,52,8.80
2015,10,04,00,53,8.80
2015,10,04,00,54,8.70
2015,10,04,00,55,8.70
2015,10,04,00,56,8.70
2015,10,04,00,57,8.70
2015,10,04,00,58,8.70
2015,10,04,00,59,8.70
2015,10,04,01,00,8.70
2015,10,04,01,01,8.70
2015,10,04,01,02,8.70
2015,10,04,01,03,8.70
2015,10,04,01,04,8.60
2015,10,04,01,05,8.60
2015,10,04,01,06,8.60
2015,10,04,01,07,8.60
2015,10,04,01,08,8.60
2015,10,04,01,09,8.60
2015,10,04,01,10,8.60
2015,10,04,01,11,8.60
2015,10,04,01,12,8.60
2015,10,04,01,13,8.60
2015,10,04,01,14,8.50
2015,10,04,01,15,8.50
2015,10,04,01,16,8.50
2015,10,04,01,17,8.50
2015,10,04,01,18,8.50
2015,10,04,01,19,8.50
2015,10,04,01,20,8.40
2015,10,04,01,21,8.40
2015,10,04,01,22,8.40
2015,10,04,01,23,8.40
2015,10,04,01,24,8.40
2015,10,04,01,25,8.40
2015,10,04,01,26,8.40
2015,10,04,01,27,8.40
2015,10,04,01,28,8.40
2015,10,04,01,29,8.40
2015,10,04,01,30,8.40
2015,10,04,01,31,8.40
2015,10,04,01,32,8.40
2015,10,04,01,33,8.30
2015,10,04,01,34,8.30
2015,10,04,01,35,8.30
2015,10,04,01,36,8.30
2015,10,04,01,37,8.30
2015,10,04,01,38,8.30
2015,10,04,01,39,8.30
2015,10,04,01,40,8.30
2015,10,04,01,41,8.30
2015,10,04,01,42,8.30
2015,10,04,01,43,8.20
2015,10,04,01,44,8.20
2015,10,04,01,45,8.20
2015,10,04,01,46,8.20
2015,10,04,01,47,8.20
2015,10,04,01,48,8.20
2015,10,04,01,49,8.20
2015,10,04,01,50,8.20
2015,10,04,01,51,8.20
2015,10,04,01,52,8.20
2015,10,04,01,53,8.20
2015,10,04,01,54,8.20
2015,10,04,01,55,8.20
2015,10,04,01,56,8.20
2015,10,04,01,57,8.20
2015,10,04,01,58,8.10
2015,10,04,01,59,8.10
2015,10,04,02,00,8.10
2015,10,04,02,01,8.10
2015,10,04,02,02,8.10
2015,10,04,02,03,8.10
2015,10,04,02,04,8.10
2015,10,04,02,05,8.10
2015,10,04,02,06,8.10
2015,10,04,02,07,8.10
2015,10,04,02,08,8.10
2015,10,04,02,09,8.10
2015,10,04,02,10,8.10
2015,10,04,02,11,8.10
2015,10,04,02,12,8.10
2015,10,04,02,13,8.10
2015,10,04,02,14,8.10
2015,10,04,02,15,8.10
2015,10,04,02,16,8.10
2015,10,04,02,17,8.10
2015,10,04,02,18,8.10
2015,10,04,02,19,8.10
2015,10,04,02,20,8.10
2015,10,04,02,21,8.10
2015,10,04,02,22,8.10
2015,10,04,02,23,8.10
2015,10,04,02,24,8.10
2015,10,04,02,25,8.10
2015,10,04,02,26,8.10
2015,10,04,02,27,8.10
2015,10,04,02,28,8.00
2015,10,04,02,29,8.00
2015,10,04,02,30,8.00
2015,10,04,02,31,8.00
2015,10,04,02,32,7.90
2015,10,04,02,33,7.90
2015,10,04,02,34,7.90
2015,10,04,02,35,7.90
2015,10,04,02,36,7.90
2015,10,04,02,37,7.90
2015,10,04,02,38,7.90
2015,10,04,02,39,7.90
2015,10,04,02,40,7.90
2015,10,04,02,41,7.90
2015,10,04,02,42,7.80
2015,10,04,02,43,7.80
2015,10,04,02,44,7.80
2015,10,04,02,45,7.80
2015,10,04,02,46,7.80
2015,10,04,02,47,7.80
2015,10,04,02,48,7.80
2015,10,04,02,49,7.80
2015,10,04,02,50,7.80
2015,10,04,02,51,7.80
2015,10,04,02,52,7.80
2015,10,04,02,53,7.80
2015,10,04,02,54,7.80
2015,10,04,02,55,7.80
2015,10,04,02,56,7.80
2015,10,04,02,57,7.80
2015,10,04,02,58,7.80
2015,10,04,02,59,7.80
2015,10,04,03,00,7.80
2015,10,04,03,01,7.80
2015,10,04,03,02,7.80
2015,10,04,03,03,7.80
2015,10,04,03,04,7.80
2015,10,04,03,05,7.80
2015,10,04,03,06,7.80
2015,10,04,03,07,7.80
2015,10,04,03,09,7.80
2015,10,04,03,10,7.80
2015,10,04,03,11,7.80
2015,10,04,03,12,7.80
2015,10,04,03,13,7.70
2015,10,04,03,14,7.70
2015,10,04,03,15,7.70
2015,10,04,03,16,7.70
2015,10,04,03,17,7.70
2015,10,04,03,18,7.70
2015,10,04,03,19,7.70
2015,10,04,03,20,7.80
2015,10,04,03,21,7.70
2015,10,04,03,22,7.70
2015,10,04,03,23,7.70
2015,10,04,03,24,7.70
2015,10,04,03,25,7.70
2015,10,04,03,26,7.70
2015,10,04,03,27,7.70
2015,10,04,03,28,7.70
2015,10,04,03,29,7.70
2015,10,04,03,30,7.70
2015,10,04,03,31,7.70
2015,10,04,03,32,7.70
2015,10,04,03,33,7.70
2015,10,04,03,34,7.70
2015,10,04,03,35,7.70
2015,10,04,03,36,7.70
2015,10,04,03,37,7.70
2015,10,04,03,38,7.70
2015,10,04,03,39,7.70
2015,10,04,03,40,7.70
2015,10,04,03,41,7.70
2015,10,04,03,42,7.70
2015,10,04,03,43,7.70
2015,10,04,03,44,7.70
2015,10,04,03,45,7.70
2015,10,04,03,46,7.70
2015,10,04,03,47,7.70
2015,10,04,03,48,7.70
2015,10,04,03,49,7.70
2015,10,04,03,50,7.60
2015,10,04,03,51,7.60
2015,10,04,03,52,7.60
2015,10,04,03,53,7.60
2015,10,04,03,54,7.60
2015,10,04,03,55,7.60
2015,10,04,03,56,7.50
2015,10,04,03,57,7.50
2015,10,04,03,58,7.40
2015,10,04,03,59,7.40
2015,10,04,04,00,7.40
2015,10,04,04,01,7.40
2015,10,04,04,02,7.40
2015,10,04,04,03,7.40
2015,10,04,04,04,7.30
2015,10,04,04,05,7.30
2015,10,04,04,06,7.30
2015,10,04,04,07,7.30
2015,10,04,04,08,7.30
2015,10,04,04,09,7.30
2015,10,04,04,10,7.30
2015,10,04,04,11,7.30
2015,10,04,04,12,7.30
2015,10,04,04,13,7.30
2015,10,04,04,14,7.30
2015,10,04,04,15,7.30
2015,10,04,04,16,7.30
2015,10,04,04,17,7.30
2015,10,04,04,18,7.30
2015,10,04,04,19,7.30
2015,10,04,04,20,7.30
2015,10,04,04,21,7.30
2015,10,04,04,22,7.30
2015,10,04,04,23,7.30
2015,10,04,04,24,7.30
2015,10,04,04,25,7.30
2015,10,04,04,26,7.20
2015,10,04,04,27,7.20
2015,10,04,04,28,7.20
2015,10,04,04,29,7.20
2015,10,04,04,30,7.20
2015,10,04,04,31,7.20
2015,10,04,04,32,7.20
2015,10,04,04,33,7.20
2015,10,04,04,34,7.20
2015,10,04,04,35,7.20
2015,10,04,04,36,7.20
2015,10,04,04,37,7.20
2015,10,04,04,38,7.20
2015,10,04,04,39,7.10
2015,10,04,04,40,7.10
2015,10,04,04,41,7.10
2015,10,04,04,42,7.10
2015,10,04,04,43,7.10
2015,10,04,04,44,7.10
2015,10,04,04,45,7.10
2015,10,04,04,46,7.10
2015,10,04,04,47,7.10
2015,10,04,04,48,7.10
2015,10,04,04,49,7.10
2015,10,04,04,50,7.10
2015,10,04,04,51,7.00
2015,10,04,04,52,7.00
2015,10,04,04,53,7.00
2015,10,04,04,54,7.00
2015,10,04,04,55,6.90
2015,10,04,04,56,6.90
2015,10,04,04,57,6.90
2015,10,04,04,58,6.90
2015,10,04,04,59,6.90
2015,10,04,05,00,6.90
2015,10,04,05,01,6.90
2015,10,04,05,02,6.90
2015,10,04,05,03,6.90
2015,10,04,05,04,6.90
2015,10,04,05,05,6.90
2015,10,04,05,06,6.90
2015,10,04,05,07,6.90
2015,10,04,05,08,6.80
2015,10,04,05,09,6.80
2015,10,04,05,10,6.80
2015,10,04,05,11,6.80
2015,10,04,05,12,6.80
2015,10,04,05,13,6.80
2015,10,04,05,14,6.80
2015,10,04,05,15,6.80
2015,10,04,05,16,6.80
2015,10,04,05,17,6.80
2015,10,04,05,18,6.80
2015,10,04,05,19,6.80
2015,10,04,05,20,6.80
2015,10,04,05,21,6.80
2015,10,04,05,22,6.80
2015,10,04,05,23,6.80
2015,10,04,05,24,6.90
2015,10,04,05,25,6.90
2015,10,04,05,26,6.90
2015,10,04,05,27,6.90
2015,10,04,05,28,6.90
2015,10,04,05,29,6.90
2015,10,04,05,30,6.90
2015,10,04,05,31,6.90
2015,10,04,05,32,6.90
2015,10,04,05,33,6.90
2015,10,04,05,34,6.90
2015,10,04,05,35,6.90
2015,10,04,05,36,6.90
2015,10,04,05,37,6.90
2015,10,04,05,38,6.90
2015,10,04,05,39,6.90
2015,10,04,05,40,6.90
2015,10,04,05,41,6.90
2015,10,04,05,42,6.90
2015,10,04,05,43,6.90
2015,10,04,05,44,6.90
2015,10,04,05,45,6.90
2015,10,04,05,46,6.80
2015,10,04,05,47,6.80
2015,10,04,05,48,6.80
2015,10,04,05,49,6.80
2015,10,04,05,50,6.80
2015,10,04,05,51,6.80
2015,10,04,05,52,6.80
2015,10,04,05,53,6.80
2015,10,04,05,54,6.80
2015,10,04,05,55,6.80
2015,10,04,05,56,6.80
2015,10,04,05,57,6.80
2015,10,04,05,58,6.80
2015,10,04,05,59,6.80
2015,10,04,06,00,6.80
2015,10,04,06,01,6.80
2015,10,04,06,02,6.80
2015,10,04,06,03,6.80
2015,10,04,06,04,6.80
2015,10,04,06,05,6.80
2015,10,04,06,06,6.80
2015,10,04,06,07,6.80
2015,10,04,06,08,6.80
2015,10,04,06,09,6.80
2015,10,04,06,10,6.80
2015,10,04,06,11,6.80
2015,10,04,06,12,6.80
2015,10,04,06,13,6.80
2015,10,04,06,14,6.80
2015,10,04,06,15,6.80
2015,10,04,06,16,6.80
2015,10,04,06,17,6.80
2015,10,04,06,18,6.80
2015,10,04,06,19,6.80
2015,10,04,06,20,6.80
2015,10,04,06,21,6.80
2015,10,04,06,22,6.80
2015,10,04,06,23,6.80
2015,10,04,06,24,6.80
2015,10,04,06,25,6.80
2015,10,04,06,26,6.80
2015,10,04,06,27,6.70
2015,10,04,06,28,6.80
2015,10,04,06,29,6.70
2015,10,04,06,30,6.70
2015,10,04,06,31,6.70
2015,10,04,06,32,6.70
2015,10,04,06,33,6.70
2015,10,04,06,34,6.70
2015,10,04,06,35,6.70
2015,10,04,06,36,6.70
2015,10,04,06,37,6.70
2015,10,04,06,38,6.70
2015,10,04,06,39,6.70
2015,10,04,06,40,6.70
2015,10,04,06,41,6.70
2015,10,04,06,42,6.70
2015,10,04,06,43,6.70
2015,10,04,06,44,6.70
2015,10,04,06,45,6.70
2015,10,04,06,46,6.70
2015,10,04,06,47,6.70
2015,10,04,06,48,6.70
2015,10,04,06,49,6.70
2015,10,04,06,50,6.80
2015,10,04,06,51,6.80
2015,10,04,06,52,6.80
2015,10,04,06,53,6.80
2015,10,04,06,54,6.80
2015,10,04,06,55,6.80
2015,10,04,06,56,6.80
2015,10,04,06,57,6.80
2015,10,04,06,58,6.80
2015,10,04,06,59,6.80
2015,10,04,07,00,6.80
2015,10,04,07,01,6.70
2015,10,04,07,02,6.70
2015,10,04,07,03,6.70
2015,10,04,07,04,6.70
2015,10,04,07,05,6.70
2015,10,04,07,06,6.70
2015,10,04,07,07,6.70
2015,10,04,07,08,6.70
2015,10,04,07,09,6.70
2015,10,04,07,10,6.70
2015,10,04,07,11,6.70
2015,10,04,07,12,6.70
2015,10,04,07,13,6.70
2015,10,04,07,14,6.70
2015,10,04,07,15,6.70
2015,10,04,07,16,6.70
2015,10,04,07,17,6.70
2015,10,04,07,18,6.70
2015,10,04,07,19,6.70
2015,10,04,07,20,6.70
2015,10,04,07,21,6.70
2015,10,04,07,22,6.70
2015,10,04,07,23,6.70
2015,10,04,07,24,6.70
2015,10,04,07,25,6.70
2015,10,04,07,26,6.70
2015,10,04,07,27,6.70
2015,10,04,07,28,6.70
2015,10,04,07,29,6.70
2015,10,04,07,30,6.70
2015,10,04,07,31,6.70
2015,10,04,07,32,6.70
2015,10,04,07,33,6.70
2015,10,04,07,34,6.70
2015,10,04,07,35,6.70
2015,10,04,07,36,6.70
2015,10,04,07,37,6.70
2015,10,04,07,38,6.70
2015,10,04,07,39,6.70
2015,10,04,07,40,6.70
2015,10,04,07,41,6.70
2015,10,04,07,42,6.70
2015,10,04,07,43,6.70
2015,10,04,07,44,6.60
2015,10,04,07,45,6.60
2015,10,04,07,46,6.60
2015,10,04,07,47,6.60
2015,10,04,07,48,6.60
2015,10,04,07,49,6.60
2015,10,04,07,50,6.60
2015,10,04,07,51,6.60
2015,10,04,07,52,6.60
2015,10,04,07,53,6.50
2015,10,04,07,54,6.50
2015,10,04,07,55,6.50
2015,10,04,07,56,6.50
2015,10,04,07,57,6.40
2015,10,04,07,58,6.40
2015,10,04,07,59,6.40
2015,10,04,08,00,6.40
2015,10,04,08,01,6.40
2015,10,04,08,02,6.40
2015,10,04,08,03,6.40
2015,10,04,08,04,6.40
2015,10,04,08,05,6.40
2015,10,04,08,06,6.40
2015,10,04,08,07,6.40
2015,10,04,08,08,6.40
2015,10,04,08,09,6.40
2015,10,04,08,10,6.40
2015,10,04,08,11,6.40
2015,10,04,08,12,6.40
2015,10,04,08,13,6.40
2015,10,04,08,14,6.40
2015,10,04,08,15,6.40
2015,10,04,08,16,6.40
2015,10,04,08,17,6.40
2015,10,04,08,18,6.40
2015,10,04,08,19,6.40
2015,10,04,08,20,6.40
2015,10,04,08,22,6.40
2015,10,04,08,23,6.40
2015,10,04,08,24,6.40
2015,10,04,08,25,6.40
2015,10,04,08,26,6.40
2015,10,04,08,27,6.40
2015,10,04,08,28,6.40
2015,10,04,08,29,6.40
2015,10,04,08,30,6.40
2015,10,04,08,31,6.50
2015,10,04,08,32,6.60
2015,10,04,08,33,6.60
2015,10,04,08,34,6.60
2015,10,04,08,35,6.70
2015,10,04,08,36,6.70
2015,10,04,08,37,6.80
2015,10,04,08,38,6.80
2015,10,04,08,39,6.90
2015,10,04,08,40,6.90
2015,10,04,08,41,7.00
2015,10,04,08,42,7.00
2015,10,04,08,43,7.10
2015,10,04,08,44,7.10
2015,10,04,08,45,7.20
2015,10,04,08,46,7.20
2015,10,04,08,47,7.30
2015,10,04,08,48,7.30
2015,10,04,08,49,7.40
2015,10,04,08,50,7.40
2015,10,04,08,51,7.50
2015,10,04,08,52,7.60
2015,10,04,08,53,7.60
2015,10,04,08,54,7.60
2015,10,04,08,55,7.70
2015,10,04,08,56,7.70
2015,10,04,08,57,7.70
2015,10,04,08,58,7.70
2015,10,04,08,59,7.70
2015,10,04,09,00,7.70
2015,10,04,09,01,7.70
2015,10,04,09,02,7.70
2015,10,04,09,03,7.70
2015,10,04,09,04,7.70
2015,10,04,09,05,7.70
2015,10,04,09,06,7.60
2015,10,04,09,07,7.70
2015,10,04,09,08,7.60
2015,10,04,09,09,7.70
2015,10,04,09,10,7.70
2015,10,04,09,11,7.70
2015,10,04,09,12,7.70
2015,10,04,09,13,7.80
2015,10,04,09,14,7.80
2015,10,04,09,15,7.80
2015,10,04,09,16,7.80
2015,10,04,09,17,7.90
2015,10,04,09,18,7.90
2015,10,04,09,19,8.00
2015,10,04,09,21,8.10
2015,10,04,09,22,8.20
2015,10,04,09,23,8.30
2015,10,04,09,24,8.30
2015,10,04,09,25,8.40
2015,10,04,09,26,8.50
2015,10,04,09,27,8.60
2015,10,04,09,28,8.70
2015,10,04,09,29,8.70
2015,10,04,09,30,8.80
2015,10,04,09,31,8.90
2015,10,04,09,32,8.90
2015,10,04,09,33,9.00
2015,10,04,09,34,9.10
2015,10,04,09,35,9.10
2015,10,04,09,36,9.20
2015,10,04,09,37,9.20
2015,10,04,09,38,9.30
2015,10,04,09,39,9.40
2015,10,04,09,40,9.40
2015,10,04,09,41,9.50
2015,10,04,09,42,9.60
2015,10,04,09,43,9.70
2015,10,04,09,44,9.70
2015,10,04,09,45,9.80
2015,10,04,09,46,9.80
2015,10,04,09,47,9.90
2015,10,04,09,48,10.00
2015,10,04,09,49,10.10
2015,10,04,09,50,10.10
2015,10,04,09,51,10.20
2015,10,04,09,52,10.20
2015,10,04,09,53,10.20
2015,10,04,09,54,10.30
2015,10,04,09,55,10.30
2015,10,04,09,56,10.40
2015,10,04,09,57,10.40
2015,10,04,09,58,10.50
2015,10,04,09,59,10.50
2015,10,04,10,00,10.60
2015,10,04,10,01,10.60
2015,10,04,10,02,10.60
2015,10,04,10,03,10.60
2015,10,04,10,04,10.70
2015,10,04,10,05,10.70
2015,10,04,10,06,10.70
2015,10,04,10,07,10.80
2015,10,04,10,08,10.80
2015,10,04,10,09,10.80
2015,10,04,10,10,10.80
2015,10,04,10,11,10.80
2015,10,04,10,12,10.90
2015,10,04,10,13,11.00
2015,10,04,10,14,11.00
2015,10,04,10,15,11.10
2015,10,04,10,16,11.20
2015,10,04,10,17,11.20
2015,10,04,10,18,11.30
2015,10,04,10,19,11.30
2015,10,04,10,20,11.40
2015,10,04,10,21,11.40
2015,10,04,10,22,11.50
2015,10,04,10,23,11.60
2015,10,04,10,24,11.60
2015,10,04,10,25,11.70
2015,10,04,10,26,11.70
2015,10,04,10,27,11.70
2015,10,04,10,28,11.70
2015,10,04,10,29,11.80
2015,10,04,10,30,11.80
2015,10,04,10,31,11.80
2015,10,04,10,32,11.80
2015,10,04,10,33,11.80
2015,10,04,10,34,11.80
2015,10,04,10,35,11.80
2015,10,04,10,36,11.80
2015,10,04,10,37,11.90
2015,10,04,10,38,11.90
2015,10,04,10,40,11.90
2015,10,04,10,41,11.90
2015,10,04,10,42,11.90
2015,10,04,10,43,11.90
2015,10,04,10,44,12.00
2015,10,04,10,45,12.10
2015,10,04,10,46,12.10
2015,10,04,10,47,12.10
2015,10,04,10,48,12.10
2015,10,04,10,49,12.20
2015,10,04,10,50,12.30
2015,10,04,10,51,12.30
2015,10,04,10,52,12.40
2015,10,04,10,53,12.40
2015,10,04,10,54,12.50
2015,10,04,10,55,12.60
2015,10,04,10,56,12.70
2015,10,04,10,57,12.80
2015,10,04,10,58,12.90
2015,10,04,10,59,13.00
2015,10,04,11,00,13.20
2015,10,04,11,01,13.30
2015,10,04,11,02,13.40
2015,10,04,11,03,13.50
2015,10,04,11,04,13.60
2015,10,04,11,05,13.70
2015,10,04,11,06,13.80
2015,10,04,11,07,13.90
2015,10,04,11,08,13.90
2015,10,04,11,09,14.00
2015,10,04,11,10,14.10
2015,10,04,11,11,14.10
2015,10,04,11,12,14.10
2015,10,04,11,13,14.20
2015,10,04,11,14,14.20
2015,10,04,11,15,14.30
2015,10,04,11,17,14.30
2015,10,04,11,18,14.30
2015,10,04,11,19,14.30
2015,10,04,11,20,14.30
2015,10,04,11,21,14.30
2015,10,04,11,22,14.40
2015,10,04,11,23,14.40
2015,10,04,11,24,14.40
2015,10,04,11,25,14.40
2015,10,04,11,26,14.50
2015,10,04,11,27,14.60
2015,10,04,11,28,14.60
2015,10,04,11,29,14.70
2015,10,04,11,30,14.70
2015,10,04,11,31,14.70
2015,10,04,11,32,14.80
2015,10,04,11,33,14.80
2015,10,04,11,34,14.80
2015,10,04,11,35,14.90
2015,10,04,11,36,14.90
2015,10,04,11,37,15.10
2015,10,04,11,38,15.10
2015,10,04,11,39,15.20
2015,10,04,11,40,15.30
2015,10,04,11,41,15.30
2015,10,04,11,42,15.40
2015,10,04,11,43,15.40
2015,10,04,11,44,15.50
2015,10,04,11,45,15.50
2015,10,04,11,46,15.60
2015,10,04,11,47,15.60
2015,10,04,11,48,15.60
2015,10,04,11,49,15.60
2015,10,04,11,50,15.70
2015,10,04,11,51,15.70
2015,10,04,11,52,15.70
2015,10,04,11,53,15.80
2015,10,04,11,54,15.80
2015,10,04,11,55,15.80
2015,10,04,11,56,15.90
2015,10,04,11,57,16.00
2015,10,04,11,58,16.10
2015,10,04,11,59,16.20
2015,10,04,12,00,16.20
2015,10,04,12,01,16.30
2015,10,04,12,02,16.40
2015,10,04,12,04,16.60
2015,10,04,12,05,16.60
2015,10,04,12,06,16.60
2015,10,04,12,07,16.70
2015,10,04,12,08,16.70
2015,10,04,12,09,16.70
2015,10,04,12,11,16.80
2015,10,04,12,12,16.80
2015,10,04,12,13,16.90
2015,10,04,12,14,16.90
2015,10,04,12,15,17.10
2015,10,04,12,16,17.10
2015,10,04,12,17,17.20
2015,10,04,12,18,17.30
2015,10,04,12,19,17.30
2015,10,04,12,20,17.30
2015,10,04,12,21,17.30
2015,10,04,12,22,17.40
2015,10,04,12,23,17.40
2015,10,04,12,24,17.40
2015,10,04,12,25,17.40
2015,10,04,12,26,17.40
2015,10,04,12,27,17.40
2015,10,04,12,28,17.60
2015,10,04,12,29,17.70
2015,10,04,12,30,17.70
2015,10,04,12,31,17.80
2015,10,04,12,32,17.90
2015,10,04,12,33,17.90
2015,10,04,12,34,18.00
2015,10,04,12,35,18.00
2015,10,04,12,36,18.10
2015,10,04,12,37,18.00
2015,10,04,12,38,17.90
2015,10,04,12,39,17.90
2015,10,04,12,40,17.90
2015,10,04,12,41,18.00
2015,10,04,12,42,18.10
2015,10,04,12,43,18.20
2015,10,04,12,44,18.20
2015,10,04,12,45,18.30
2015,10,04,12,46,18.40
2015,10,04,12,47,18.60
2015,10,04,12,48,18.60
2015,10,04,12,49,18.60
2015,10,04,12,50,18.60
2015,10,04,12,51,18.60
2015,10,04,12,52,18.50
2015,10,04,12,53,18.50
2015,10,04,12,54,18.40
2015,10,04,12,55,18.40
2015,10,04,12,56,18.40
2015,10,04,12,57,18.60
2015,10,04,12,58,18.70
2015,10,04,12,59,18.70
2015,10,04,13,00,18.80
2015,10,04,13,01,18.90
2015,10,04,13,02,19.10
2015,10,04,13,03,19.20
2015,10,04,13,04,19.30
2015,10,04,13,05,19.40
2015,10,04,13,06,19.60
2015,10,04,13,07,19.70
2015,10,04,13,08,19.80
2015,10,04,13,09,19.90
2015,10,04,13,10,20.00
2015,10,04,13,11,20.10
2015,10,04,13,12,20.10
2015,10,04,13,13,20.20
2015,10,04,13,14,20.20
2015,10,04,13,15,20.20
2015,10,04,13,16,20.30
2015,10,04,13,17,20.30
2015,10,04,13,18,20.30
2015,10,04,13,19,20.30
2015,10,04,13,20,20.30
2015,10,04,13,21,20.30
2015,10,04,13,22,20.20
2015,10,04,13,23,20.20
2015,10,04,13,24,20.20
2015,10,04,13,25,20.30
2015,10,04,13,26,20.30
2015,10,04,13,27,20.40
2015,10,04,13,28,20.40
2015,10,04,13,29,20.60
2015,10,04,13,30,20.60
2015,10,04,13,31,20.70
2015,10,04,13,32,20.80
2015,10,04,13,33,20.80
2015,10,04,13,34,20.80
2015,10,04,13,35,20.80
2015,10,04,13,36,20.80
2015,10,04,13,37,20.70
2015,10,04,13,38,20.70
2015,10,04,13,39,20.70
2015,10,04,13,40,20.80
2015,10,04,13,41,20.80
2015,10,04,13,42,20.80
2015,10,04,13,43,20.80
2015,10,04,13,44,20.80
2015,10,04,13,45,20.90
2015,10,04,13,46,20.90
2015,10,04,13,47,21.10
2015,10,04,13,48,21.10
2015,10,04,13,49,21.20
2015,10,04,13,50,21.30
2015,10,04,13,51,21.30
2015,10,04,13,52,21.30
2015,10,04,13,53,21.30
2015,10,04,13,54,21.40
2015,10,04,13,55,21.40
2015,10,04,13,56,21.30
2015,10,04,13,57,21.30
2015,10,04,13,58,21.30
2015,10,04,13,59,21.30
2015,10,04,14,00,21.30
2015,10,04,14,01,21.20
2015,10,04,14,02,21.20
2015,10,04,14,03,21.30
2015,10,04,14,04,21.30
2015,10,04,14,05,21.40
2015,10,04,14,06,21.30
2015,10,04,14,07,21.30
2015,10,04,14,08,21.20
2015,10,04,14,09,21.20
2015,10,04,14,10,21.20
2015,10,04,14,11,21.30
2015,10,04,14,12,21.20
2015,10,04,14,13,21.30
2015,10,04,14,14,21.30
2015,10,04,14,15,21.40
2015,10,04,14,16,21.40
2015,10,04,14,17,21.50
2015,10,04,14,18,21.60
2015,10,04,14,19,21.70
2015,10,04,14,20,21.70
2015,10,04,14,21,21.80
2015,10,04,14,22,21.90
2015,10,04,14,23,22.00
2015,10,04,14,24,22.10
2015,10,04,14,25,22.10
2015,10,04,14,26,22.10
2015,10,04,14,27,22.10
2015,10,04,14,28,22.10
2015,10,04,14,29,22.10
2015,10,04,14,30,22.10
2015,10,04,14,31,22.10
2015,10,04,14,32,22.10
2015,10,04,14,33,22.10
2015,10,04,14,34,22.10
2015,10,04,14,35,22.10
2015,10,04,14,36,22.20
2015,10,04,14,37,22.20
2015,10,04,14,38,22.30
2015,10,04,14,39,22.30
2015,10,04,14,40,22.40
2015,10,04,14,41,22.40
2015,10,04,14,42,22.40
2015,10,04,14,43,22.40
2015,10,04,14,44,22.50
2015,10,04,14,45,22.60
2015,10,04,14,46,22.60
2015,10,04,14,47,22.60
2015,10,04,14,48,22.60
2015,10,04,14,49,22.50
2015,10,04,14,50,22.60
2015,10,04,14,51,22.60
2015,10,04,14,52,22.60
2015,10,04,14,53,22.70
2015,10,04,14,54,22.70
2015,10,04,14,55,22.70
2015,10,04,14,56,22.80
2015,10,04,14,57,22.80
2015,10,04,14,58,22.90
2015,10,04,14,59,23.00
2015,10,04,15,00,23.00
2015,10,04,15,01,23.10
2015,10,04,15,02,23.00
2015,10,04,15,03,23.00
2015,10,04,15,04,22.90
2015,10,04,15,05,22.80
2015,10,04,15,06,22.80
2015,10,04,15,07,22.80
2015,10,04,15,08,22.80
2015,10,04,15,09,22.80
2015,10,04,15,10,22.90
2015,10,04,15,11,22.90
2015,10,04,15,12,23.10
2015,10,04,15,13,23.20
2015,10,04,15,14,23.20
2015,10,04,15,15,23.30
2015,10,04,15,16,23.30
2015,10,04,15,17,23.40
2015,10,04,15,18,23.40
2015,10,04,15,19,23.60
2015,10,04,15,20,23.60
2015,10,04,15,21,23.70
2015,10,04,15,22,23.70
2015,10,04,15,23,23.70
2015,10,04,15,24,23.70
2015,10,04,15,25,23.70
2015,10,04,15,26,23.70
2015,10,04,15,27,23.70
2015,10,04,15,28,23.80
2015,10,04,15,29,23.80
2015,10,04,15,30,23.90
2015,10,04,15,31,23.90
2015,10,04,15,32,24.00
2015,10,04,15,33,24.10
2015,10,04,15,34,24.20
2015,10,04,15,35,24.20
2015,10,04,15,36,24.20
2015,10,04,15,37,24.20
2015,10,04,15,38,24.20
2015,10,04,15,39,24.20
2015,10,04,15,40,24.20
2015,10,04,15,41,24.20
2015,10,04,15,42,24.20
2015,10,04,15,43,24.20
2015,10,04,15,44,24.20
2015,10,04,15,45,24.30
2015,10,04,15,46,24.30
2015,10,04,15,47,24.30
2015,10,04,15,48,24.40
2015,10,04,15,49,24.40
2015,10,04,15,50,24.30
2015,10,04,15,51,24.30
2015,10,04,15,52,24.30
2015,10,04,15,53,24.30
2015,10,04,15,54,24.30
2015,10,04,15,55,24.30
2015,10,04,15,56,24.30
2015,10,04,15,57,24.30
2015,10,04,15,58,24.30
2015,10,04,15,59,24.30
2015,10,04,16,00,24.30
2015,10,04,16,01,24.30
2015,10,04,16,02,24.30
2015,10,04,16,03,24.30
2015,10,04,16,04,24.30
2015,10,04,16,05,24.30
2015,10,04,16,06,24.30
2015,10,04,16,07,24.20
2015,10,04,16,08,24.10
2015,10,04,16,09,24.10
2015,10,04,16,10,24.00
2015,10,04,16,11,23.90
2015,10,04,16,12,23.80
2015,10,04,16,13,23.70
2015,10,04,16,14,23.60
2015,10,04,16,15,23.60
2015,10,04,16,16,23.60
2015,10,04,16,17,23.60
2015,10,04,16,18,23.60
2015,10,04,16,19,23.60
2015,10,04,16,20,23.60
2015,10,04,16,21,23.60
2015,10,04,16,22,23.70
2015,10,04,16,23,23.70
2015,10,04,16,24,23.70
2015,10,04,16,25,23.70
2015,10,04,16,26,23.60
2015,10,04,16,27,23.60
2015,10,04,16,28,23.60
2015,10,04,16,29,23.50
2015,10,04,16,30,23.40
2015,10,04,16,31,23.30
2015,10,04,16,32,23.30
2015,10,04,16,33,23.30
2015,10,04,16,34,23.30
2015,10,04,16,35,23.40
2015,10,04,16,36,23.30
2015,10,04,16,37,23.30
2015,10,04,16,38,23.30
2015,10,04,16,39,23.30
2015,10,04,16,40,23.30
2015,10,04,16,41,23.40
2015,10,04,16,42,23.40
2015,10,04,16,43,23.50
2015,10,04,16,44,23.50
2015,10,04,16,45,23.60
2015,10,04,16,46,23.50
2015,10,04,16,47,23.50
2015,10,04,16,48,23.40
2015,10,04,16,49,23.40
2015,10,04,16,50,23.40
2015,10,04,16,51,23.40
2015,10,04,16,52,23.40
2015,10,04,16,53,23.40
2015,10,04,16,54,23.30
2015,10,04,16,55,23.30
2015,10,04,16,56,23.20
2015,10,04,16,57,23.10
2015,10,04,16,58,23.10
2015,10,04,16,59,23.00
2015,10,04,17,00,22.90
2015,10,04,17,01,22.90
2015,10,04,17,02,22.80
2015,10,04,17,04,22.60
2015,10,04,17,05,22.60
2015,10,04,17,06,22.40
2015,10,04,17,07,22.30
2015,10,04,17,08,22.30
2015,10,04,17,09,22.20
2015,10,04,17,10,22.10
2015,10,04,17,11,22.10
2015,10,04,17,12,22.00
2015,10,04,17,13,21.90
2015,10,04,17,14,21.90
2015,10,04,17,15,21.80
2015,10,04,17,16,21.80
2015,10,04,17,17,21.80
2015,10,04,17,18,21.70
2015,10,04,17,19,21.70
2015,10,04,17,20,21.70
2015,10,04,17,21,21.70
2015,10,04,17,22,21.60
2015,10,04,17,23,21.60
2015,10,04,17,24,21.60
2015,10,04,17,25,21.60
2015,10,04,17,26,21.60
2015,10,04,17,27,21.60
2015,10,04,17,28,21.50
2015,10,04,17,29,21.40
2015,10,04,17,30,21.40
2015,10,04,17,31,21.40
2015,10,04,17,32,21.30
2015,10,04,17,33,21.30
2015,10,04,17,34,21.20
2015,10,04,17,35,21.10
2015,10,04,17,36,21.10
2015,10,04,17,37,20.90
2015,10,04,17,38,20.80
2015,10,04,17,39,20.80
2015,10,04,17,40,20.70
2015,10,04,17,41,20.70
2015,10,04,17,42,20.60
2015,10,04,17,43,20.50
2015,10,04,17,44,20.40
2015,10,04,17,45,20.40
2015,10,04,17,46,20.40
2015,10,04,17,47,20.40
2015,10,04,17,48,20.30
2015,10,04,17,49,20.30
2015,10,04,17,50,20.30
2015,10,04,17,51,20.30
2015,10,04,17,52,20.30